FW5449 Weather Reports


time (UTC)temp
C
wind
direction
speed
KPH
gust
KPH
rain 1hr
cm
rain 24hr
cm
rain mn
cm
humidity
%
barometer
mb
20260508192248 18 231 6.4 14.5 0.00 0.00 0.00 65 1021.7
20260508191747 17 39 6.4 16.1 0.00 0.00 0.00 60 1021.9
20260508191245 17 241 6.4 17.7 0.00 0.00 0.00 59 1021.9
20260508190749 17 17 4.8 17.7 0.00 0.00 0.00 63 1021.9
20260508190244 17 319 6.4 12.9 0.00 0.00 0.00 60 1021.9
20260508185743 17 356 8.0 14.5 0.00 0.00 0.00 59 1021.9
20260508185244 16 260 6.4 14.5 0.00 0.00 0.00 60 1021.8
20260508184744 16 265 6.4 17.7 0.00 0.00 0.00 60 1021.7
20260508184242 16 239 8.0 17.7 0.00 0.00 0.00 62 1021.8
20260508183731 16 235 6.4 17.7 0.00 0.00 0.00 63 1021.8
20260508183229 15 280 4.8 12.9 0.00 0.00 0.00 61 1021.9
20260508182727 16 275 6.4 16.1 0.00 0.00 0.00 66 1021.9
20260508182226 16 254 6.4 16.1 0.00 0.00 0.00 62 1022.0
20260508181718 15 279 8.0 17.7 0.00 0.00 0.00 65 1022.0
20260508181218 15 292 9.7 17.7 0.00 0.00 0.00 61 1022.1
20260508180717 15 295 8.0 19.3 0.00 0.00 0.00 68 1022.0
20260508180218 16 295 6.4 19.3 0.00 0.00 0.00 61 1022.1
20260508175717 15 259 6.4 16.1 0.00 0.00 0.00 68 1022.0
20260508175436 14 333 8.0 16.1 0.00 0.00 0.00 66 1022.0
20260508174715 14 270 8.0 17.7 0.00 0.00 0.00 67 1022.0
20260508174218 14 319 8.0 17.7 0.00 0.00 0.00 69 1022.0
20260508173931 13 292 8.0 17.7 0.00 0.00 0.00 69 1021.9
20260508173213 13 283 6.4 17.7 0.00 0.00 0.00 68 1021.9
20260508172711 14 254 6.4 12.9 0.00 0.00 0.00 71 1021.8
20260508172211 12 132 8.0 14.5 0.00 0.00 0.00 71 1021.8
20260508171712 12 255 9.7 17.7 0.00 0.00 0.00 68 1021.8
20260508171212 13 243 6.4 17.7 0.00 0.00 0.00 68 1021.8
20260508170711 13 233 4.8 16.1 0.00 0.00 0.00 70 1021.6
20260508170212 13 203 4.8 16.1 0.00 0.00 0.00 72 1021.6
20260508165712 12 265 4.8 9.7 0.00 0.00 0.00 75 1021.6
20260508165437 11 238 4.8 16.1 0.00 0.00 0.00 74 1021.6
20260508164710 11 164 6.4 16.1 0.00 0.00 0.00 74 1021.7
20260508164208 11 208 4.8 11.3 0.00 0.00 0.00 74 1021.6
20260508163710 11 181 6.4 11.3 0.00 0.00 0.00 75 1021.5
20260508163208 11 232 4.8 9.7 0.00 0.00 0.00 76 1021.5
20260508162935 11 229 4.8 9.7 0.00 0.00 0.00 77 1021.6
20260508162210 11 198 6.4 16.1 0.00 0.00 0.00 75 1021.3
20260508161703 11 171 6.4 16.1 0.00 0.00 0.00 75 1021.3
20260508161431 11 162 4.8 14.5 0.00 0.00 0.00 77 1021.3
20260508160704 11 204 4.8 9.7 0.00 0.00 0.00 75 1021.2
20260508160203 11 165 4.8 11.3 0.00 0.00 0.00 76 1021.3
20260508155927 11 163 6.4 11.3 0.00 0.00 0.00 76 1021.1
20260508155414 11 187 6.4 11.3 0.00 0.00 0.00 77 1021.3
20260508154701 11 175 6.4 12.9 0.00 0.00 0.00 75 1021.3
20260508154159 11 189 8.0 14.5 0.00 0.00 0.00 76 1021.4
20260508153650 11 235 8.0 14.5 0.00 0.00 0.00 76 1021.4
20260508153151 11 167 6.4 14.5 0.00 0.00 0.00 76 1021.0
20260508152649 10 136 6.4 12.9 0.00 0.00 0.00 75 1021.1
20260508152404 11 130 6.4 12.9 0.00 0.00 0.00 77 1021.2
20260508151645 10 104 6.4 12.9 0.00 0.00 0.00 76 1021.3
20260508151355 10 172 6.4 16.1 0.00 0.00 0.00 78 1021.4
20260508150621 10 160 6.4 16.1 0.00 0.00 0.00 76 1021.4
20260508150058 10 129 4.8 9.7 0.00 0.00 0.00 78 1021.4
20260508145550 10 166 6.4 9.7 0.00 0.00 0.00 78 1021.3
20260508145048 10 148 4.8 8.0 0.00 0.00 0.00 79 1021.2
20260508144550 10 131 4.8 9.7 0.00 0.00 0.00 80 1021.4
20260508144046 10 172 6.4 11.3 0.00 0.00 0.00 79 1021.4
20260508143544 10 147 4.8 11.3 0.00 0.00 0.00 80 1021.2
20260508143045 10 160 4.8 8.0 0.00 0.00 0.00 81 1021.4
20260508142544 10 156 4.8 9.7 0.00 0.00 0.00 80 1021.3
20260508142042 10 150 4.8 9.7 0.00 0.00 0.00 81 1021.3
20260508141538 10 171 4.8 11.3 0.00 0.00 0.00 81 1021.3
20260508141030 10 191 4.8 11.3 0.00 0.00 0.00 82 1021.3
20260508140753 10 182 4.8 6.4 0.00 0.00 0.00 83 1021.2
20260508140029 10 195 4.8 9.7 0.00 0.00 0.00 83 1021.1
20260508135529 10 196 4.8 11.3 0.00 0.00 0.00 84 1021.1
20260508135027 9 176 6.4 11.3 0.00 0.00 0.00 85 1021.3
20260508134524 9 185 6.4 11.3 0.00 0.00 0.00 84 1021.1
20260508134026 9 183 4.8 9.7 0.00 0.00 0.00 85 1021.0
20260508133516 9 196 6.4 11.3 0.00 0.00 0.00 85 1021.0
20260508133017 9 191 6.4 11.3 0.00 0.00 0.00 85 1020.8
20260508132513 9 197 6.4 11.3 0.00 0.00 0.00 85 1020.9
20260508132008 8 205 6.4 11.3 0.00 0.00 0.00 85 1020.7
20260508131501 8 148 4.8 11.3 0.00 0.00 0.00 86 1020.9
20260508131000 8 211 4.8 11.3 0.00 0.00 0.00 86 1020.8
20260508130500 8 191 4.8 11.3 0.00 0.00 0.00 86 1020.8
20260508125958 8 202 4.8 11.3 0.00 0.00 0.00 87 1020.7
20260508125453 8 189 4.8 9.7 0.00 0.00 0.00 87 1020.6
20260508124951 8 179 4.8 9.7 0.00 0.00 0.00 87 1020.6
20260508124453 8 202 4.8 12.9 0.00 0.00 0.00 87 1020.5
20260508124220 8 179 4.8 12.9 0.00 0.00 0.00 88 1020.4
20260508123451 7 210 6.4 12.9 0.00 0.00 0.00 88 1020.3
20260508122950 7 153 6.4 12.9 0.00 0.00 0.00 88 1020.3
20260508122451 7 189 4.8 11.3 0.00 0.00 0.00 89 1020.1
20260508121947 7 158 4.8 11.3 0.00 0.00 0.00 89 1020.1
20260508121448 7 197 4.8 9.7 0.00 0.00 0.00 89 1020.1
20260508120948 7 144 4.8 9.7 0.00 0.00 0.00 88 1020.1
20260508120446 7 169 4.8 9.7 0.00 0.00 0.00 89 1020.0
20260508115945 7 204 4.8 11.3 0.00 0.00 0.00 89 1019.9
20260508115444 7 169 4.8 11.3 0.00 0.00 0.00 90 1020.1
20260508114945 7 137 4.8 11.3 0.00 0.00 0.00 91 1020.0
20260508114442 7 177 4.8 11.3 0.00 0.00 0.00 91 1020.0
20260508113940 8 179 6.4 12.9 0.00 0.00 0.00 92 1019.9
20260508113441 8 181 6.4 12.9 0.00 0.00 0.00 91 1019.9
20260508113205 7 177 6.4 12.9 0.00 0.00 0.00 90 1019.9
20260508112442 8 187 6.4 14.5 0.00 0.00 0.00 88 1019.9
20260508111941 8 176 6.4 14.5 0.00 0.00 0.00 87 1019.9
20260508111438 7 195 6.4 14.5 0.00 0.00 0.00 88 1019.8
20260508111205 7 202 6.4 11.3 0.00 0.00 0.00 88 1019.7
20260508110438 7 175 6.4 11.3 0.00 0.00 0.00 88 1019.6
20260508105937 7 210 6.4 12.9 0.00 0.00 0.00 88 1019.4
20260508105436 7 219 6.4 12.9 0.00 0.00 0.00 87 1019.3
20260508104937 7 240 6.4 11.3 0.00 0.00 0.00 87 1019.3
20260508104438 7 203 6.4 11.3 0.00 0.00 0.00 87 1019.3
20260508103938 7 214 6.4 14.5 0.00 0.00 0.00 87 1019.2
20260508103915 7 190 6.4 14.5 0.00 0.00 0.00 87 1019.2
20260508102932 7 215 4.8 11.3 0.00 0.00 0.00 87 1019.1
20260508102651 7 169 4.8 11.3 0.00 0.00 0.00 88 1019.2
20260508101933 7 208 3.2 9.7 0.00 0.00 0.00 87 1019.1
20260508101423 7 189 4.8 9.7 0.00 0.00 0.00 87 1019.0
20260508101139 8 225 6.4 14.5 0.00 0.00 0.00 87 1019.0
20260508100418 8 225 6.4 14.5 0.00 0.00 0.00 87 1018.8
20260508095902 8 189 6.4 12.9 0.00 0.00 0.00 87 1018.7
20260508095401 8 223 8.0 16.1 0.00 0.00 0.00 87 1018.6
20260508094857 8 218 8.0 16.1 0.00 0.00 0.00 87 1018.5
20260508094359 8 233 6.4 12.9 0.00 0.00 0.00 87 1018.4
20260508094113 8 212 6.4 11.3 0.00 0.00 0.00 86 1018.3
20260508093358 8 213 6.4 11.3 0.00 0.00 0.00 86 1018.3
20260508092859 8 233 6.4 17.7 0.00 0.00 0.00 86 1018.3
20260508092356 8 192 6.4 17.7 0.00 0.00 0.00 85 1018.3
20260508091854 9 196 6.4 16.1 0.00 0.00 0.00 85 1018.3
20260508091356 9 188 8.0 16.1 0.00 0.00 0.00 85 1018.2
20260508090854 9 217 8.0 17.7 0.00 0.00 0.00 84 1018.3
20260508090353 9 181 9.7 17.7 0.00 0.00 0.00 84 1018.2
20260508085851 10 226 9.7 17.7 0.00 0.00 0.00 83 1018.3
20260508085616 10 205 11.3 17.7 0.00 0.00 0.00 83 1018.1
20260508085122 10 233 11.3 17.7 0.00 0.00 0.00 83 1018.2
20260508084350 10 227 11.3 22.5 0.00 0.00 0.00 83 1018.0
20260508083848 10 190 9.7 22.5 0.00 0.00 0.00 84 1018.0
20260508083834 10 201 9.7 17.7 0.00 0.00 0.00 83 1018.1
20260508082846 10 229 9.7 17.7 0.00 0.00 0.00 83 1017.9
20260508082348 10 215 9.7 17.7 0.00 0.00 0.00 83 1017.8
20260508082112 10 189 9.7 16.1 0.00 0.00 0.00 84 1017.8
20260508081347 10 186 8.0 16.1 0.00 0.00 0.00 84 1017.8
20260508080847 10 181 6.4 14.5 0.00 0.00 0.00 83 1017.8
20260508080346 10 194 6.4 11.3 0.00 0.00 0.00 83 1017.7
20260508075845 10 199 6.4 14.5 0.00 0.00 0.00 83 1017.8
20260508075348 10 165 6.4 14.5 0.00 0.00 0.00 83 1017.7
20260508074843 10 196 6.4 12.9 0.00 0.00 0.00 82 1017.7
20260508074350 11 233 6.4 12.9 0.00 0.00 0.00 82 1017.7
20260508073843 11 242 8.0 16.1 0.00 0.00 0.00 81 1017.7
20260508073336 11 227 9.7 16.1 0.00 0.00 0.00 82 1017.7
20260508072833 11 236 8.0 16.1 0.00 0.00 0.00 81 1017.6
20260508072329 11 210 9.7 14.5 0.00 0.00 0.00 82 1017.6
20260508072053 11 211 9.7 14.5 0.00 0.00 0.00 81 1017.5
20260508071317 11 231 8.0 14.5 0.00 0.00 0.00 81 1017.4
20260508070817 11 215 8.0 14.5 0.00 0.00 0.00 81 1017.5
20260508070317 11 206 9.7 17.7 0.00 0.00 0.00 80 1017.5
20260508065820 12 210 9.7 17.7 0.00 0.00 0.00 80 1017.5
20260508065319 12 200 9.7 14.5 0.00 0.00 0.00 80 1017.3
20260508064818 12 194 8.0 16.1 0.00 0.00 0.00 80 1017.4
20260508064808 12 210 6.4 16.1 0.00 0.00 0.00 80 1017.3
20260508063813 12 194 9.7 17.7 0.00 0.00 0.00 79 1017.4
20260508063314 12 201 9.7 17.7 0.00 0.00 0.00 79 1017.3
20260508062813 12 182 8.0 17.7 0.00 0.00 0.00 78 1017.4
20260508062542 12 214 8.0 14.5 0.00 0.00 0.00 78 1017.2
20260508061813 12 177 9.7 16.1 0.00 0.00 0.00 77 1017.3
20260508061536 12 214 8.0 16.1 0.00 0.00 0.00 77 1017.3
20260508060809 12 207 6.4 12.9 0.00 0.00 0.00 75 1017.3
20260508060308 12 210 8.0 12.9 0.00 0.00 0.00 75 1017.3
20260508055808 12 216 6.4 12.9 0.00 0.00 0.00 74 1017.2
20260508055307 12 213 6.4 12.9 0.00 0.00 0.00 72 1017.3
20260508055032 13 196 8.0 17.7 0.00 0.00 0.00 69 1017.3
20260508054528 13 228 8.0 17.7 0.00 0.00 0.00 67 1017.2
20260508053806 13 169 8.0 12.9 0.00 0.00 0.00 66 1017.2
20260508053304 13 217 8.0 14.5 0.00 0.00 0.00 66 1017.2
20260508052804 13 213 9.7 17.7 0.00 0.00 0.00 65 1017.3
20260508052307 13 214 11.3 17.7 0.00 0.00 0.00 65 1017.2
20260508051803 14 227 9.7 16.1 0.00 0.00 0.00 64 1017.2
20260508051522 14 221 8.0 16.1 0.00 0.00 0.00 65 1017.1
20260508050801 14 231 9.7 17.7 0.00 0.00 0.00 64 1017.0
20260508050301 14 223 9.7 17.7 0.00 0.00 0.00 64 1017.0
20260508045800 14 225 8.0 16.1 0.00 0.00 0.00 65 1017.1
20260508045257 15 203 6.4 14.5 0.00 0.00 0.00 64 1016.9
20260508044758 15 239 6.4 14.5 0.00 0.00 0.00 65 1016.8
20260508044515 15 234 6.4 14.5 0.00 0.00 0.00 66 1016.8
20260508044022 15 225 4.8 12.9 0.00 0.00 0.00 68 1016.8
20260508043511 15 227 6.4 14.5 0.00 0.00 0.00 68 1016.8
20260508042752 15 227 9.7 14.5 0.00 0.00 0.00 68 1016.5
20260508042246 16 233 9.7 19.3 0.00 0.00 0.00 67 1016.4
20260508041745 16 233 9.7 19.3 0.00 0.00 0.00 67 1016.4
20260508041513 16 240 8.0 14.5 0.00 0.00 0.00 68 1016.3
20260508040737 16 226 8.0 14.5 0.00 0.00 0.00 68 1016.3
20260508040238 16 236 6.4 14.5 0.00 0.00 0.00 67 1016.3
20260508035737 16 246 6.4 14.5 0.00 0.00 0.00 66 1016.2
20260508035233 16 234 6.4 14.5 0.00 0.00 0.00 65 1016.0
20260508034733 16 251 6.4 12.9 0.00 0.00 0.00 66 1016.2
20260508034454 16 252 4.8 12.9 0.00 0.00 0.00 67 1016.1
20260508033725 17 258 4.8 9.7 0.00 0.00 0.00 68 1016.1
20260508033223 17 246 6.4 9.7 0.00 0.00 0.00 69 1015.9
20260508032723 17 237 4.8 8.0 0.00 0.00 0.00 69 1015.7
20260508032218 18 239 4.8 8.0 0.00 0.00 0.00 67 1015.6
20260508031719 18 299 4.8 8.0 0.00 0.00 0.00 66 1015.6
20260508031441 18 281 3.2 8.0 0.00 0.00 0.00 64 1015.5
20260508030718 19 308 4.8 8.0 0.00 0.00 0.00 62 1015.4
20260508030217 19 313 4.8 8.0 0.00 0.00 0.00 60 1015.3
20260508025715 20 292 4.8 8.0 0.00 0.00 0.00 59 1015.3
20260508025215 20 321 4.8 6.4 0.00 0.00 0.00 59 1015.2
20260508024717 20 317 4.8 8.0 0.00 0.00 0.00 57 1015.3
20260508024215 20 333 3.2 8.0 0.00 0.00 0.00 58 1015.2
20260508023714 20 348 3.2 6.4 0.00 0.00 0.00 58 1015.2
20260508023205 20 346 4.8 8.0 0.00 0.00 0.00 58 1015.2
20260508022705 21 344 4.8 8.0 0.00 0.00 0.00 57 1015.2
20260508022405 21 350 4.8 9.7 0.00 0.00 0.00 59 1015.2
20260508022249 21 333 3.2 6.4 0.00 0.00 0.00 57 1015.2
20260508021159 21 336 4.8 9.7 0.00 0.00 0.00 59 1015.2
20260508020659 21 358 4.8 9.7 0.00 0.00 0.00 58 1015.2
20260508020202 21 356 4.8 9.7 0.00 0.00 0.00 58 1015.3
20260508015700 22 3 4.8 9.7 0.00 0.00 0.00 54 1015.3
20260508015201 22 341 3.2 6.4 0.00 0.00 0.00 51 1015.3
20260508014652 22 9 3.2 6.4 0.00 0.00 0.00 52 1015.3
20260508014150 22 319 1.6 4.8 0.00 0.00 0.00 51 1015.5
20260508013647 22 249 0.0 3.2 0.00 0.00 0.00 51 1015.5
20260508013152 22 51 1.6 4.8 0.00 0.00 0.00 49 1015.6
20260508012635 22 51 1.6 4.8 0.00 0.00 0.00 51 1015.6
20260508012125 22 45 3.2 9.7 0.00 0.00 0.00 50 1015.7
20260508011609 22 45 3.2 9.7 0.00 0.00 0.00 49 1015.6
20260508011104 22 11 1.6 6.4 0.00 0.00 0.00 51 1015.7
20260508010602 22 25 1.6 6.4 0.00 0.00 0.00 49 1015.7
20260508010055 22 25 3.2 6.4 0.00 0.00 0.00 52 1015.7
20260508005817 23 6 3.2 6.4 0.00 0.00 0.00 50 1015.8
20260508005054 22 347 3.2 6.4 0.00 0.00 0.00 52 1015.8
20260508004553 22 18 3.2 6.4 0.00 0.00 0.00 51 1015.8
20260508004310 22 347 3.2 6.4 0.00 0.00 0.00 51 1015.9
20260508003544 22 21 1.6 6.4 0.00 0.00 0.00 51 1015.9
20260508003304 22 301 1.6 6.4 0.00 0.00 0.00 52 1015.8
20260508002544 22 346 1.6 6.4 0.00 0.00 0.00 56 1016.0
20260508002044 22 36 1.6 6.4 0.00 0.00 0.00 50 1016.0
20260508001538 22 322 1.6 6.4 0.00 0.00 0.00 54 1016.0
20260508001038 21 150 1.6 6.4 0.00 0.00 0.00 53 1016.0
20260508000540 22 123 3.2 6.4 0.00 0.00 0.00 56 1016.1
20260508000036 21 144 3.2 8.0 0.00 0.00 0.00 54 1016.1
20260507235533 22 17 3.2 8.0 0.00 0.00 0.00 54 1016.1
20260507235028 22 307 3.2 9.7 0.00 0.00 0.00 57 1016.2
20260507234529 22 21 3.2 9.7 0.00 0.00 0.00 54 1016.2
20260507234030 21 65 3.2 9.7 0.00 0.00 0.00 55 1016.3
20260507233522 22 6 3.2 9.7 0.00 0.00 0.00 57 1016.3
20260507233023 22 37 3.2 9.7 0.00 0.00 0.00 55 1016.3
20260507232518 22 329 3.2 11.3 0.00 0.00 0.00 56 1016.4
20260507232014 22 311 3.2 11.3 0.00 0.00 0.00 54 1016.7
20260507231512 21 353 3.2 9.7 0.00 0.00 0.00 58 1016.8
20260507231011 21 38 3.2 9.7 0.00 0.00 0.00 58 1016.8
20260507230504 21 6 3.2 9.7 0.00 0.00 0.00 59 1016.9
20260507230003 21 21 3.2 6.4 0.00 0.00 0.00 60 1016.8
20260507225503 21 275 3.2 8.0 0.00 0.00 0.00 60 1017.0
20260507224949 21 270 4.8 12.9 0.00 0.00 0.00 60 1017.1
20260507224449 21 285 3.2 12.9 0.00 0.00 0.00 59 1017.1
20260507224214 21 265 3.2 8.0 0.00 0.00 0.00 60 1017.0
20260507223449 21 252 4.8 9.7 0.00 0.00 0.00 61 1017.2
20260507222949 21 325 4.8 9.7 0.00 0.00 0.00 60 1017.2
20260507222448 20 275 3.2 14.5 0.00 0.00 0.00 63 1017.3
20260507221949 21 252 4.8 14.5 0.00 0.00 0.00 66 1017.4
20260507221448 20 339 6.4 12.9 0.00 0.00 0.00 65 1017.4
20260507221213 21 168 6.4 12.9 0.00 0.00 0.00 65 1017.5
20260507220452 21 270 4.8 11.3 0.00 0.00 0.00 62 1017.6
20260507215945 20 298 4.8 12.9 0.00 0.00 0.00 64 1017.7
20260507215442 20 323 4.8 12.9 0.00 0.00 0.00 63 1017.6
20260507214942 20 222 4.8 14.5 0.00 0.00 0.00 68 1017.7
20260507214441 21 318 6.4 14.5 0.00 0.00 0.00 62 1017.7
20260507213939 20 245 6.4 12.9 0.00 0.00 0.00 64 1017.7
20260507213437 20 359 6.4 14.5 0.00 0.00 0.00 67 1017.8
20260507212937 20 279 4.8 14.5 0.00 0.00 0.00 67 1017.8
20260507212434 19 19 3.2 12.9 0.00 0.00 0.00 67 1017.8
20260507212151 20 299 3.2 9.7 0.00 0.00 0.00 68 1017.9
20260507211651 20 296 3.2 9.7 0.00 0.00 0.00 66 1017.9
20260507211153 19 218 3.2 8.0 0.00 0.00 0.00 67 1018.1
20260507210426 19 246 3.2 11.3 0.00 0.00 0.00 68 1018.1
20260507210145 19 6 4.8 12.9 0.00 0.00 0.00 67 1018.1
20260507205639 18 287 3.2 12.9 0.00 0.00 0.00 67 1018.3
20260507205138 18 167 4.8 12.9 0.00 0.00 0.00 67 1018.5
20260507204419 19 239 6.4 12.9 0.00 0.00 0.00 70 1018.4
20260507204142 18 265 4.8 12.9 0.00 0.00 0.00 68 1018.6
20260507203417 18 284 3.2 8.0 0.00 0.00 0.00 69 1018.7
20260507202914 18 282 4.8 9.7 0.00 0.00 0.00 67 1018.6
20260507202413 18 283 4.8 11.3 0.00 0.00 0.00 68 1018.8
20260507201907 18 299 6.4 12.9 0.00 0.00 0.00 69 1019.0
20260507201623 18 215 6.4 14.5 0.00 0.00 0.00 68 1019.0
20260507200907 18 93 4.8 14.5 0.00 0.00 0.00 72 1019.0
20260507200404 17 317 4.8 14.5 0.00 0.00 0.00 72 1019.0
20260507195902 17 17 4.8 14.5 0.00 0.00 0.00 72 1019.1
20260507195623 17 294 3.2 11.3 0.00 0.00 0.00 73 1019.1
20260507194901 17 51 3.2 11.3 0.00 0.00 0.00 74 1019.1
20260507194359 16 279 1.6 6.4 0.00 0.00 0.00 75 1019.3
20260507193859 16 16 1.6 6.4 0.00 0.00 0.00 73 1019.2
20260507193351 16 288 4.8 11.3 0.00 0.00 0.00 73 1019.3
20260507192854 16 23 3.2 11.3 0.00 0.00 0.00 74 1019.3